[[{"header":{"parameterUnit":"m.s-1","parameterCategory":1,"la1":30.2991,"la2":30.254,"lo1":-89.0895,"lo2":-89.0444,"dy":0.0017,"dx":0.0017,"nx":28,"ny":28,"refTime":"2024-05-04T03:00:00:Z","depth":0,"parameterNumber":2,"parameterNumberName":"U-component_of_WINDS"},"data":[0,0,0,0,0,0,0,0,0,0,0,0,0,0,0,0,0,0,0,0,0,0,0,0,0,0,0,0,0,0,0,0,0,0,0,0,0,0,0,0,0,0,0,0,0,0,0,0,0,0,0,0,0,0,0,0,0,0,-1.6042,-1.6043,0,-1.607,-1.607,-1.607,-1.6049,-1.6048,-1.6047,-1.6046,-1.6076,-1.6077,-1.6079,0,0,0,0,0,0,0,0,0,0,0,0,0,-1.5974,-1.5975,-1.6042,-1.6043,-1.6043,-1.607,-1.607,-1.607,-1.6049,-1.6048,-1.6047,-1.6046,-1.6075,-1.6077,-1.6079,0,0,0,0,0,0,0,0,0,0,0,0,0,-1.6003,-1.5976,-1.6042,-1.6036,-1.6035,-1.6069,-1.607,-1.607,-1.6049,-1.6048,-1.6047,-1.6045,-1.6075,-1.6077,-1.6079,-1.6122,0,0,-1.6087,-1.6088,0,0,0,0,0,0,0,0,-1.6001,-1.6005,-1.6036,-1.6036,-1.6036,-1.6054,-1.6056,-1.6088,-1.605,-1.6044,-1.6046,-1.6045,-1.607,-1.6073,-1.6081,-1.6123,-1.6125,-1.6087,-1.6089,-1.609,-1.609,0,0,0,0,0,0,0,-1.5999,-1.6004,-1.6053,-1.6037,-1.6037,-1.6032,-1.6034,-1.6062,-1.6064,-1.6044,-1.6043,-1.6046,-1.6069,-1.6078,-1.6081,-1.6125,-1.6087,-1.6089,-1.6091,-1.6092,-1.6205,-1.6206,0,0,0,0,0,0,-1.5997,-1.6002,-1.6052,-1.6054,-1.6015,-1.6034,-1.6037,-1.605,-1.6064,-1.6065,-1.6048,-1.6045,-1.6075,-1.6078,-1.6082,-1.6133,-1.609,-1.6092,-1.6093,-1.6203,-1.6205,-1.6207,0,0,0,0,0,0,-1.5996,-1.6002,-1.6051,-1.6028,-1.6034,-1.6037,-1.6051,-1.6051,-1.606,-1.6066,-1.6067,-1.6056,-1.6074,-1.6079,-1.6112,-1.6134,-1.6093,-1.6095,-1.6201,-1.6204,-1.6206,-1.6236,0,0,0,0,0,0,-1.5994,-1.6002,-1.6017,-1.6028,-1.6035,-1.608,-1.6053,-1.6053,-1.6064,-1.6062,-1.6075,-1.6075,-1.6073,-1.6109,-1.6115,-1.6137,-1.6097,-1.6199,-1.6202,-1.6205,-1.6233,-1.6239,-1.6244,0,0,0,0,0,-1.5992,-1.6025,-1.6018,-1.6025,-1.6055,-1.6082,-1.6085,-1.6082,-1.6066,-1.6082,-1.6086,-1.6075,-1.6131,-1.6112,-1.6119,-1.6142,-1.6198,-1.6201,-1.6205,-1.6231,-1.6238,-1.6244,0,0,0,0,0,0,-1.6017,-1.6026,-1.6019,-1.6057,-1.6069,-1.6078,-1.6098,-1.609,-1.6107,-1.6103,-1.6099,-1.6102,-1.6137,-1.6143,-1.6122,-1.6184,-1.6162,-1.6167,-1.6179,-1.6186,-1.6192,-1.619,-1.6099,0,0,0,0,0,-1.6027,-1.6048,-1.6055,-1.6087,-1.6094,-1.6095,-1.6107,-1.6103,-1.6115,-1.612,-1.6127,-1.6139,-1.616,-1.6173,-1.6192,-1.6234,-1.6237,-1.6253,-1.6259,-1.6263,-1.6267,-1.629,-1.6298,-1.6218,-1.6218,-1.6218,0,0,-1.6048,-1.6056,-1.6069,-1.6093,-1.6101,-1.6123,-1.6099,-1.6124,-1.614,-1.6124,-1.6156,-1.6161,-1.6175,-1.6213,-1.623,-1.6219,-1.629,-1.6267,-1.6271,-1.6273,-1.6295,-1.6302,-1.6309,-1.622,-1.622,-1.6219,0,0,-1.6097,-1.6105,-1.6133,-1.6142,-1.6156,-1.6156,-1.6163,-1.6174,-1.6177,-1.6209,-1.6197,-1.6217,-1.6252,-1.6263,-1.6273,-1.6327,-1.6317,-1.6333,-1.6362,-1.6384,-1.6391,-1.6396,-1.6416,-1.6423,-1.6337,-1.6337,-1.6337,0,-1.6122,-1.6154,-1.6149,-1.6174,-1.6185,-1.6171,-1.62,-1.6209,-1.6228,-1.6237,-1.6224,-1.6268,-1.6276,-1.6317,-1.633,-1.6338,-1.6346,-1.6331,-1.639,-1.6396,-1.6401,-1.6419,-1.6427,-1.6339,-1.6339,-1.6339,-1.6339,0,-1.6183,-1.6206,-1.6227,-1.6246,-1.6259,-1.6286,-1.6286,-1.63,-1.6295,-1.6298,-1.6331,-1.634,-1.6361,-1.6371,-1.6366,-1.6411,-1.6403,-1.6391,-1.6368,-1.641,-1.6428,-1.6435,-1.6342,-1.6341,-1.6341,-1.634,0,0,-1.625,-1.6265,-1.6273,-1.6281,-1.6295,-1.6313,-1.6339,-1.6359,-1.6372,-1.6386,-1.6409,-1.6439,-1.6427,-1.6438,-1.6435,-1.6455,-1.6497,-1.644,-1.644,-1.645,-1.6547,-1.6557,-1.6566,-1.6491,-1.6492,-1.6494,-1.6546,0,-1.63,-1.6345,-1.6342,-1.6385,-1.6406,-1.6394,-1.6417,-1.6428,-1.6431,-1.645,-1.6454,-1.6475,-1.6458,-1.6465,-1.6484,-1.6488,-1.6517,-1.6484,-1.6513,-1.6514,-1.651,-1.6575,-1.6585,-1.6634,-1.6553,-1.6554,-1.6555,0,-1.6364,-1.638,-1.6426,-1.6437,-1.6445,-1.6466,-1.6485,-1.6502,-1.6515,-1.6516,-1.6529,-1.6523,-1.655,-1.6527,-1.6565,-1.6543,-1.6555,-1.6559,-1.6561,-1.6563,-1.6537,-1.6579,-1.665,-1.6658,-1.6566,-1.6565,-1.6564,0,-1.6409,-1.6441,-1.6473,-1.648,-1.6494,-1.6509,-1.6515,-1.6527,-1.6539,-1.6555,-1.6564,-1.6583,-1.6594,-1.6609,-1.6609,-1.6592,-1.6648,-1.6624,-1.665,-1.665,-1.6662,-1.6662,-1.6736,-1.6669,-1.6669,-1.6669,-1.6669,0,-1.6465,-1.6494,-1.6493,-1.6512,-1.6544,-1.654,-1.6571,-1.6576,-1.6587,-1.6607,-1.6597,-1.6617,-1.6615,-1.6635,-1.6635,-1.6667,-1.6672,-1.6674,-1.6673,-1.6675,-1.6675,-1.6682,-1.6679,-1.6671,-1.6671,-1.667,-1.667,0,-1.652,-1.652,-1.6554,-1.6564,-1.6567,-1.659,-1.6599,-1.6618,-1.662,-1.6646,-1.6652,-1.6656,-1.6679,-1.668,-1.6706,-1.6706,-1.6745,-1.6741,-1.6741,-1.674,-1.6766,-1.6764,-1.6848,-1.6859,-1.6785,-1.6786,-1.6786,0,-1.6556,-1.6578,-1.659,-1.6603,-1.661,-1.6631,-1.6644,-1.6641,-1.6654,-1.6671,-1.6688,-1.671,-1.6727,-1.6765,-1.6771,-1.6791,-1.6787,-1.6816,-1.679,-1.6791,-1.6788,-1.6787,-1.679,-1.6821,-1.6821,-1.6822,-1.6823,0,-1.6621,-1.662,-1.6638,-1.6657,-1.6672,-1.6686,-1.67,-1.6711,-1.671,-1.6726,-1.6749,-1.6763,-1.679,-1.6812,-1.6832,-1.6839,-1.6831,-1.6831,-1.6838,-1.6839,-1.6839,-1.684,-1.6755,-1.6829,-1.6828,-1.6828,-1.6827,-1.6827,-1.6668,-1.6686,-1.6698,-1.6719,-1.6728,-1.6741,-1.676,-1.6764,-1.6783,-1.6804,-1.6802,-1.6828,-1.6841,-1.6867,-1.6876,-1.6896,-1.6887,-1.6897,-1.69,-1.6902,-1.6905,-1.6835,-1.69,-1.69,-1.69,-1.69,-1.69,0,-1.6732,-1.6739,-1.6758,-1.6777,-1.6794,-1.6784,-1.6798,-1.6813,-1.6836,-1.6848,-1.6866,-1.6893,-1.6914,-1.6922,-1.6943,-1.6958,-1.6955,-1.6964,-1.6963,-1.6965,-1.6912,-1.6904,-1.6966,-1.6966,-1.6966,-1.6966,-1.6966,-1.6966,-1.6768,-1.6799,-1.6799,-1.6836,-1.6842,-1.6867,-1.6876,-1.6889,-1.6898,-1.6929,-1.6947,-1.6951,-1.6962,-1.6984,-1.7003,-1.7005,-1.7013,-1.7024,-1.7024,-1.6975,-1.6968,-1.6962,-1.6954,-1.7026,-1.7026,-1.7075,-1.7075,-1.7076]},{"header":{"parameterUnit":"m.s-1","parameterCategory":1,"la1":30.2991,"la2":30.254,"lo1":-89.0895,"lo2":-89.0444,"dy":0.0017,"dx":0.0017,"nx":28,"ny":28,"refTime":"2024-05-04T03:00:00:Z","depth":0,"parameterNumber":3,"parameterNumberName":"V-component_of_WINDS"},"data":[0,0,0,0,0,0,0,0,0,0,0,0,0,0,0,0,0,0,0,0,0,0,0,0,0,0,0,0,0,0,0,0,0,0,0,0,0,0,0,0,0,0,0,0,0,0,0,0,0,0,0,0,0,0,0,0,0,0,1.7282,1.7282,0,1.7271,1.7271,1.7271,1.7242,1.7241,1.724,1.724,1.723,1.723,1.723,0,0,0,0,0,0,0,0,0,0,0,0,0,1.7278,1.7278,1.7282,1.7282,1.7282,1.7271,1.7271,1.7271,1.7242,1.7241,1.724,1.724,1.7229,1.723,1.723,0,0,0,0,0,0,0,0,0,0,0,0,0,1.7275,1.7278,1.7282,1.7266,1.7264,1.7271,1.7271,1.7271,1.7242,1.7241,1.724,1.7239,1.7229,1.723,1.723,1.7252,0,0,1.7232,1.7232,0,0,0,0,0,0,0,0,1.7275,1.7275,1.7268,1.7267,1.7265,1.7257,1.7266,1.7265,1.7242,1.7251,1.724,1.7239,1.7239,1.7239,1.7239,1.7252,1.7251,1.7232,1.7232,1.7232,1.7232,0,0,0,0,0,0,0,1.7275,1.7275,1.7278,1.7268,1.7266,1.7259,1.7258,1.7266,1.725,1.725,1.7248,1.7247,1.7238,1.7239,1.7239,1.7251,1.7232,1.7232,1.7232,1.7233,1.7282,1.7283,0,0,0,0,0,0,1.7278,1.7276,1.7278,1.7278,1.7268,1.726,1.7259,1.7261,1.725,1.7248,1.7248,1.7245,1.7238,1.7238,1.7238,1.7264,1.7232,1.7233,1.7233,1.7281,1.7282,1.7283,0,0,0,0,0,0,1.7278,1.7278,1.7279,1.7276,1.7275,1.7261,1.7264,1.7261,1.7261,1.7249,1.7246,1.7251,1.7238,1.7238,1.7249,1.7263,1.7233,1.7233,1.728,1.7281,1.7283,1.7314,0,0,0,0,0,0,1.7278,1.7278,1.7286,1.7276,1.7276,1.7289,1.7265,1.7261,1.7262,1.7259,1.7251,1.7248,1.7237,1.7249,1.725,1.7263,1.7234,1.7278,1.728,1.7282,1.7312,1.7317,1.7321,0,0,0,0,0,1.7278,1.7296,1.7287,1.7287,1.7285,1.729,1.729,1.7276,1.7263,1.7271,1.7263,1.7249,1.7261,1.725,1.7251,1.7265,1.7278,1.728,1.7282,1.731,1.7316,1.7321,0,0,0,0,0,0,1.7307,1.7294,1.7284,1.7299,1.7296,1.7285,1.7295,1.7283,1.7283,1.728,1.7263,1.7262,1.7276,1.7271,1.7259,1.7286,1.7267,1.727,1.7288,1.7293,1.7298,1.7298,1.7234,0,0,0,0,0,1.7316,1.7321,1.7309,1.7323,1.7322,1.7309,1.7311,1.73,1.7296,1.7295,1.7288,1.7285,1.7288,1.729,1.7293,1.7311,1.7309,1.7321,1.7326,1.7329,1.7332,1.7342,1.7347,1.7291,1.7291,1.7291,0,0,1.7333,1.7326,1.7331,1.7329,1.7326,1.7331,1.7308,1.7315,1.7319,1.7296,1.7306,1.7301,1.7297,1.7312,1.7319,1.7309,1.7347,1.7332,1.7335,1.7336,1.7345,1.735,1.7355,1.7292,1.7292,1.7292,0,0,1.7368,1.7363,1.7375,1.7372,1.7366,1.7358,1.7361,1.7352,1.7347,1.7358,1.734,1.7345,1.7351,1.7349,1.7348,1.7383,1.7369,1.7384,1.7407,1.7417,1.7421,1.7425,1.7437,1.7442,1.7387,1.7387,1.7387,0,1.739,1.7397,1.7382,1.7391,1.7391,1.737,1.7382,1.738,1.7376,1.7377,1.7366,1.7373,1.7369,1.7383,1.7392,1.7392,1.7395,1.7385,1.7422,1.7425,1.7429,1.744,1.7445,1.7388,1.7388,1.7388,1.7388,0,1.7425,1.7431,1.7441,1.7438,1.7439,1.7449,1.7436,1.7439,1.7429,1.7422,1.7433,1.7427,1.7427,1.743,1.742,1.7444,1.7438,1.7425,1.7406,1.7436,1.7447,1.7451,1.7391,1.739,1.739,1.7389,0,0,1.7477,1.7466,1.747,1.7468,1.7462,1.7466,1.7475,1.7476,1.7479,1.7477,1.7485,1.7491,1.7479,1.7478,1.7468,1.7477,1.7505,1.7463,1.7462,1.7471,1.753,1.754,1.7545,1.7496,1.7497,1.7497,1.7531,0,1.751,1.7525,1.7512,1.753,1.7535,1.7516,1.7525,1.7522,1.7515,1.7519,1.7511,1.7516,1.75,1.7499,1.7507,1.75,1.7516,1.7497,1.7503,1.7504,1.7505,1.7551,1.7561,1.7593,1.7535,1.7535,1.7536,0,1.755,1.755,1.7568,1.756,1.7562,1.757,1.757,1.7573,1.757,1.7564,1.7564,1.7552,1.7561,1.7543,1.7555,1.7542,1.7544,1.7541,1.7542,1.7542,1.7521,1.7552,1.7602,1.7607,1.7542,1.7542,1.7541,0,1.7586,1.7591,1.7602,1.7602,1.7593,1.7599,1.7596,1.7591,1.7592,1.7592,1.7593,1.7595,1.7595,1.7597,1.7585,1.7573,1.7599,1.758,1.7595,1.7596,1.7601,1.7601,1.7653,1.7603,1.7603,1.7603,1.7603,0,1.7624,1.7636,1.7619,1.7626,1.7639,1.7624,1.7638,1.7632,1.7629,1.7635,1.7618,1.7624,1.7609,1.7613,1.7604,1.7616,1.7617,1.7613,1.761,1.7614,1.7615,1.7615,1.7612,1.7604,1.7604,1.7604,1.7603,0,1.7666,1.7655,1.7667,1.7658,1.7656,1.7666,1.7658,1.7665,1.7657,1.7665,1.7666,1.7655,1.7659,1.7648,1.7651,1.7645,1.7662,1.7656,1.7663,1.7661,1.7677,1.7676,1.7731,1.7737,1.7684,1.7684,1.7685,0,1.7691,1.77,1.7692,1.7695,1.7692,1.7697,1.7699,1.7685,1.7687,1.7684,1.7691,1.7694,1.7696,1.7704,1.7696,1.7699,1.7692,1.7712,1.7693,1.7696,1.7693,1.7692,1.7693,1.7715,1.7716,1.7717,1.7717,0,1.7736,1.773,1.7733,1.7734,1.7736,1.7736,1.7735,1.7739,1.7724,1.7727,1.7732,1.7733,1.7737,1.774,1.7741,1.7738,1.7725,1.7723,1.7727,1.7731,1.7735,1.7733,1.7674,1.7722,1.7721,1.7721,1.7721,1.7721,1.777,1.7777,1.7773,1.7776,1.7774,1.7774,1.778,1.7773,1.7777,1.7778,1.777,1.7776,1.7773,1.7772,1.7771,1.7776,1.7767,1.7772,1.7774,1.7775,1.7778,1.7734,1.7776,1.7776,1.7775,1.7775,1.7775,0,1.7814,1.781,1.7814,1.7813,1.7816,1.7804,1.7803,1.7806,1.7812,1.781,1.7812,1.7818,1.7821,1.7814,1.7816,1.7822,1.7816,1.7823,1.7822,1.7822,1.7785,1.7782,1.7827,1.7827,1.7827,1.7827,1.7827,1.7827,1.7837,1.7849,1.7843,1.7853,1.7849,1.7856,1.7856,1.7856,1.7854,1.7861,1.7863,1.7859,1.7854,1.7856,1.7859,1.7857,1.7859,1.7868,1.7863,1.7829,1.7824,1.7819,1.7816,1.7868,1.7868,1.7899,1.79,1.79]}]]